EHI
0 0 0 0 0 0 0 0 0 0 0 0 0 0 0 0 0 0 0 0 0 0 0 0 0 0 0 0 0 0 0 0 0 0 0 0 0 0 0 0 0 0 0
0 0 0 0 0 0 0 0 0 0 0 0 0 0 0 0 0 0 0 0 0 0 0 0 0 0 0 0 0 0 0 0 0 0 0 0 0 0 0 0 0 0 0
0 0 0 0 0 0 0 0 0 0 0 0 0 0 0 0 0 0 0 0 0 0 0 0 0 0 0 0 0 0 0 0 0 0 0 0 0 0 0 0 0 0 0
0 0 0 0 0 0 0 0 0 0 0 0 0 0 0 0 0 0 0 0 0 0 0 0 0 0 0 0 0 0 0 0 0 0 0 0 0 0 0 0 0 0 0
0 0 0 0 0 0 0 0 0 0 0 0 0 0 0 0 0 0 0 0 0 0 0 0 0 0 0 0 0 0 0 0 0 0 0 0 0 0 0 0 0 0 0
0 0 0 0 0 0 0 0 0 0 0 0 0 0 0 0 0 0 0 0 0 0 0 0 0 0 0 0 0 0 0 0 0 0 0 0 0 0 0 0 0 0 0
0 0 0 0 0 0 0 0 0 0 0 0 0 0 0 0 0 0 0 0 0 0 0 0 0 0 0 0 0 0 0 0 0 0 0 0 0 0 0 0 0 0 0
0 0 0 0 0 0 0 0 0 0 0 0 0 0 0 0 0 0 0 0 0 0 0 0 0 0 0 0 0 0 0 0 0 0 0 0 0 0 0 0 0 0 0
0 0 0 0 0 0 0 0 0 0 0 0 0 0 0 0 0 0 0 0 0 0 0 0 0 0 0 0 0 0 0 0 0 0 0 0 0 0 0 0 0 0 0
0 0 0 0 0 0 0 0 0 0 0 0 0 0 0 0 0 0 0 0 0 0 0 0 0 0 0 0 0 0 0 0 0 0 0 0 0 0 0 0 0 0 0
0 0 0 0 0 0 0 1 0 0 0 0 0 0 0 0 0 0 0 0 0 0 0 0 0 0 0 0 0 0 0 0 0 0 0 0 0 0 0 0 0 0 0
0 0 0 0 0 0 0 0 0 0 0 0 0 0 0 0 0 0 0 0 0 0 0 0 0 0 0 0 0 0 0 0 0 0 0 0 0 0 0 0 0 0 0
0 0 0 0 0 0 0 0 0 0 0 0 0 0 0 0 0 0 0 0 0 0 0 0 0 0 0 0 0 0 0 0 0 0 0 0 0 0 0 0 0 0 0
0 0 0 0 0 0 0 0 0 0 0 0 0 0 0 0 0 0 0 0 0 0 0 0 0 0 0 0 0 0 0 0 0 0 0 0 0 0 0 0 0 0 0
0 0 0 0 0 0 0 0 0 0 0 0 0 0 0 0 0 0 0 0 0 0 0 0 0 0 0 0 0 0 0 0 0 0 0 0 0 0 0 0 0 0 0
0 0 0 0 0 0 0 0 0 0 0 0 0 0 0 0 0 0 0 0 0 0 0 0 0 0 0 0 0 0 0 0 0 0 0 0 0 0 0 0 0 0 0
0 0 0 0 0 0 0 0 0 0 0 0 0 0 0 0 0 0 0 0 0 0 0 0 0 0 0 0 0 0 0 0 0 0 0 0 0 0 0 0 0 0 0
0 0 0 0 0 0 0 0 0 0 0 0 0 0 0 0 0 0 0 0 0 0 0 0 0 0 0 0 0 0 0 0 0 0 0 0 0 0 0 0 0 0 0
0 0 0 0 0 0 0 0 0 0 0 0 0 0 0 0 0 0 0 0 0 0 0 0 0 0 0 0 0 0 0 0 0 0 0 0 0 0 0 0 0 0 0
0 0 0 0 0 0 0 0 0 0 0 0 0 0 0 0 0 0 0 0 0 0 0 0 0 0 0 0 0 0 0 0 0 0 0 0 0 0 0 0 0 0 0
0 0 0 0 0 0 0 0 0 0 0 0 0 0 0 0 0 0 0 0 0 0 0 0 0 0 0 0 0 0 0 0 0 0 0 0 0 0 0 0 0 0 0
0 0 0 0 0 0 0 0 0 0 0 0 0 0 0 0 0 0 0 0 0 0 0 0 0 0 0 0 0 0 0 0 0 0 0 0 0 0 0 0 0 0 0
0 0 0 0 0 0 0 0 0 0 0 0 0 0 0 0 0 0 0 0 0 0 0 0 0 0 0 0 0 0 0 0 0 0 0 0 0 0 0 0 0 0 0
0 0 0 0 0 0 0 0 0 1 1 0 0 0 0 0 0 0 0 0 0 0 0 0 0 0 0 0 0 0 0 0 0 0 0 0 0 0 0 0 0 0 0
0 0 0 0 0 0 0 0 0 1 1 0 0 0 0 0 0 0 0 0 0 0 0 0 0 0 0 0 0 0 0 0 0 0 0 0 0 0 0 0 0 0 0
0 0 0 0 0 0 0 0 0 1 1 0 0 0 0 0 0 0 0 0 0 0 0 0 0 0 0 0 0 0 0 0 0 0 0 0 0 0 0 0 0 0 0
Wind_Speed
7 7 7 7 7 6 6 6 6 5 4 3 3 2 3 3 3 4 5 5 5 5 5 3 4 3 3 2 3 3 5 3 3 4 4 5 6 6 5 5 5 6 7
9 8 8 8 7 7 6 6 5 5 4 2 2 2 3 3 3 3 4 4 4 5 4 4 3 3 2 3 2 2 2 2 0 0 2 3 4 4 5 4 5 6 5
11 10 9 9 8 7 7 5 5 6 5 4 3 3 3 2 2 3 3 4 4 5 4 5 4 3 2 3 2 1 1 2 2 2 2 0 2 3 4 5 5 5 5
10 10 10 9 9 7 7 6 6 6 5 5 4 3 2 2 2 2 2 3 4 4 4 4 4 4 3 3 2 2 1 0 1 2 2 3 2 0 3 3 4 5 6
12 11 11 10 9 8 7 6 6 5 4 4 3 3 2 2 2 2 3 3 3 3 4 3 3 3 3 4 4 3 2 1 1 1 1 2 1 1 1 3 3 3 4
13 12 10 9 9 8 7 6 6 5 4 5 5 4 3 2 3 2 2 2 2 2 4 3 3 3 3 4 3 3 4 3 3 2 2 1 1 1 1 2 2 2 3
13 12 12 11 10 9 8 8 7 7 6 6 5 4 4 4 3 3 2 1 2 2 3 2 2 3 3 3 3 3 3 4 3 3 2 2 2 1 1 1 2 2 2
13 12 12 11 11 10 9 8 8 7 6 6 5 4 4 3 2 2 2 2 1 2 2 3 3 3 3 3 3 3 3 3 4 4 3 2 2 2 2 1 0 2 2
13 13 12 11 11 11 10 9 8 8 7 6 5 5 5 4 3 3 3 2 2 2 2 3 3 3 3 3 3 3 3 3 3 3 3 2 3 2 2 1 1 1 0
13 13 11 11 10 9 9 9 8 8 7 6 5 4 4 4 4 3 3 3 3 2 3 3 3 3 4 3 3 3 3 4 3 2 3 2 2 2 2 1 1 2 1
13 12 11 11 10 9 9 8 8 7 6 6 6 5 5 4 4 4 4 3 3 3 3 3 3 3 3 4 3 2 3 3 3 3 3 3 2 2 1 1 1 1 1
11 11 11 11 10 10 9 9 8 7 7 6 6 6 5 5 5 5 5 4 4 4 3 3 3 3 3 3 3 3 2 2 2 2 2 2 2 1 1 1 1 1 2
10 10 10 10 10 10 9 9 8 8 7 6 6 6 6 6 5 5 5 5 5 4 4 4 4 4 3 3 3 3 2 2 2 1 1 1 1 1 1 0 0 1 1
10 10 10 10 9 9 9 9 8 7 7 7 7 6 6 6 5 5 5 5 4 4 4 4 4 4 4 4 3 3 2 2 2 1 1 1 1 1 0 0 0 1 1
10 11 10 10 10 9 9 8 8 8 8 7 7 6 6 5 5 5 5 4 4 4 4 4 4 3 3 3 3 3 3 3 3 3 2 1 1 2 2 2 2 1 1
10 11 11 11 11 11 10 9 8 8 8 8 7 6 6 5 5 5 5 5 4 4 4 4 4 4 3 3 2 4 4 4 4 3 3 3 3 3 3 1 2 4 3
10 10 11 11 10 10 10 9 9 9 9 8 7 6 6 6 6 6 5 5 5 4 4 4 4 4 4 5 5 6 5 4 3 3 3 2 2 3 4 4 6 4 4
9 9 9 9 9 9 9 9 9 9 9 8 7 7 7 6 6 6 6 6 5 5 5 5 4 4 3 5 5 6 6 4 4 4 4 4 3 3 3 3 4 3 3
8 7 8 8 8 9 9 9 9 9 8 8 8 7 7 7 7 7 7 6 5 5 5 5 5 5 5 6 6 6 5 4 5 4 4 4 4 1 3 4 4 4 4
6 6 7 8 8 8 8 9 9 9 8 8 8 8 7 7 7 7 6 6 5 5 5 5 5 6 5 5 6 8 5 5 4 4 4 3 4 2 4 5 5 6 5
6 7 7 7 7 8 8 9 8 8 8 7 7 7 7 7 7 6 5 5 5 5 5 5 5 5 5 6 7 7 5 4 4 4 4 3 4 5 6 7 6 6 6
7 7 7 6 6 7 8 8 7 6 6 6 6 6 6 6 5 6 5 5 5 5 5 5 5 4 4 4 6 7 7 5 5 4 4 2 4 6 7 7 6 6 7
6 6 6 6 6 6 6 7 6 6 6 6 6 6 6 5 5 6 6 5 5 5 5 4 4 4 4 4 6 7 7 7 5 4 2 2 4 6 6 7 8 7 6
6 5 6 6 6 6 5 5 5 6 7 6 6 6 6 5 5 4 4 4 5 5 4 4 4 4 4 4 4 4 5 6 6 5 4 5 6 7 6 6 6 6 5
5 5 5 5 5 5 5 4 5 6 6 6 5 5 5 5 5 4 3 4 4 3 4 4 4 4 4 3 2 3 4 4 4 4 4 5 5 5 5 5 5 5 6
6 5 5 5 5 5 5 4 5 5 6 5 5 4 4 4 4 4 3 1 1 2 2 2 3 3 2 1 3 4 4 4 4 5 5 6 6 6 6 6 6 6 6
Wind_Direction
175 173 171 167 165 164 161 150 150 140 136 125 119 108 92 77 67 55 45 44 45 44 47 44 52 44 66 72 98 113 119 113 117 124 110 92 69 65 61 51 58 63 55
181 178 180 175 178 172 171 164 162 157 151 133 117 101 94 79 70 64 55 42 47 43 42 50 60 61 74 81 90 116 122 112 133 199 161 140 117 75 62 59 54 57 58
190 183 186 182 183 181 177 175 172 165 164 152 133 128 122 132 117 93 66 47 45 45 43 48 54 51 61 76 80 111 146 135 97 13 331 318 90 113 84 63 64 60 56
195 189 190 190 187 182 178 177 175 173 168 166 168 161 160 122 88 81 90 88 68 60 48 55 57 60 58 69 71 74 90 128 129 96 27 26 52 190 128 107 77 63 57
197 194 194 192 187 178 178 180 174 176 175 183 176 192 166 117 116 117 111 97 80 68 65 56 59 63 66 67 64 61 55 62 48 72 89 89 93 344 117 125 118 93 67
199 197 192 188 185 178 178 181 181 180 179 189 192 197 172 161 152 152 132 123 108 89 78 71 74 72 70 72 69 71 69 55 58 52 55 53 76 87 111 126 128 108 88
195 193 190 190 188 185 183 184 186 185 184 192 199 196 191 190 182 172 151 152 121 106 92 92 86 79 78 78 77 79 71 73 70 59 57 50 48 25 25 121 129 118 110
193 192 191 191 190 189 188 188 191 190 187 196 200 199 190 200 186 186 177 166 127 107 107 108 104 99 98 101 93 86 81 79 83 76 71 70 62 40 26 17 149 145 123
189 190 189 190 190 190 190 192 193 194 191 197 200 202 199 197 189 191 188 173 160 145 144 138 129 122 117 111 110 97 98 90 85 89 91 80 82 59 45 32 338 318 124
186 187 186 187 186 186 188 192 197 196 191 194 196 197 202 196 192 193 188 187 178 166 170 163 148 137 131 125 114 106 97 106 97 84 87 82 84 75 66 43 29 354 335
185 184 183 184 183 181 183 188 192 192 189 191 188 187 189 190 192 195 188 190 182 179 180 176 168 152 146 140 135 127 121 120 116 116 108 99 74 75 70 54 45 29 6
183 182 180 178 179 182 185 189 191 191 190 189 186 186 180 184 192 191 191 190 186 188 191 182 181 165 160 157 152 150 139 130 118 116 121 113 109 83 40 17 42 32 348
178 179 178 179 181 185 187 190 191 190 186 185 187 186 186 189 194 193 188 192 193 192 194 194 191 181 179 173 173 174 169 165 156 164 164 145 141 144 108 321 23 17 345
176 178 181 184 185 187 189 191 191 189 184 184 189 192 193 194 195 190 188 191 193 196 197 195 194 191 190 190 186 192 198 197 193 200 213 232 248 286 267 242 303 296 283
179 182 185 186 186 188 190 190 190 189 185 186 192 196 194 190 190 181 188 188 191 200 196 192 193 192 201 207 210 203 211 212 205 202 210 205 25 12 342 327 315 289 272
184 186 188 188 189 190 189 188 189 190 188 190 191 189 192 185 187 187 186 184 186 195 189 195 196 199 202 161 214 244 223 216 216 218 215 188 195 184 198 254 314 317 294
184 186 189 189 192 192 189 188 191 189 191 192 188 185 187 185 189 188 185 187 186 186 191 198 199 207 190 174 202 228 242 232 235 234 223 217 204 218 215 201 214 227 250
183 185 186 185 188 187 185 187 187 189 192 192 189 187 189 187 187 189 191 197 196 188 196 200 204 211 196 182 203 218 232 236 235 236 237 231 227 230 248 240 244 248 237
182 180 180 177 180 179 179 180 183 187 190 192 193 190 191 190 190 192 197 198 198 197 200 202 207 211 203 186 202 218 226 231 232 231 239 244 238 198 246 248 250 252 247
169 167 167 168 170 173 178 182 183 187 193 195 198 193 192 191 195 200 201 195 198 204 205 205 215 218 220 180 197 223 227 232 231 225 223 223 239 216 239 247 253 257 261
155 158 162 164 169 171 177 185 187 194 195 193 193 192 190 194 196 198 198 197 198 203 210 209 214 219 223 186 192 219 235 236 238 233 230 218 198 220 237 255 260 270 280
148 156 158 158 163 171 180 187 194 193 183 181 184 188 188 187 189 191 197 199 197 201 207 212 214 217 212 216 200 210 229 258 248 247 245 227 200 226 239 246 258 268 270
145 152 153 151 155 167 182 189 184 178 175 177 183 185 185 185 187 188 190 194 200 208 211 214 219 217 213 199 200 208 219 236 248 253 258 246 225 232 236 235 246 250 253
143 151 154 153 153 163 179 186 171 174 176 180 182 182 183 182 184 188 193 196 201 209 214 215 222 224 219 221 208 208 213 217 231 241 232 228 236 240 251 247 238 244 253
144 154 157 154 153 156 163 169 171 177 184 184 181 183 183 183 186 186 195 207 207 217 224 225 227 230 230 230 245 237 229 232 236 243 242 244 241 243 246 250 252 250 248
147 151 150 154 155 154 155 157 168 184 189 184 181 180 179 180 184 184 180 154 220 192 224 275 272 244 254 222 210 231 249 252 240 244 246 248 251 254 257 258 258 254 255